COMSATBW-1

Last updated on Sun Apr 12 2026 00:02:51 GMT+0000 (Coordinated Universal Time)

1 35943U 09054B 26101.53317078 .00000026 00000+0 00000+0 0 9992 2 35943 0.0759 81.4837 0003952 316.9109 56.3134 1.00273505 60647
UTC large
Height (km)
Speed (km/s)
/
Latitude / Longitude
Inclination (degrees)
Orbital Period (minutes)
Azimuth
Elevation
Range (km)
Doppler Factor

Next 0 passes for location: London (51.5072 / 0.1276)

Sorry there are no passes over London.
COMSATBW-1